Akron Canton, OH

5:50 PM EDT on April 25, 2017 (GMT -0400)
Akron-Canton Regional

Weather History for KCAK - September, 2013

Change the Weather History Date:

Monday, September 2, 2013

  Actual Average Record
Temperature  
Mean Temperature 72 °F 68 °F  
Max Temperature 82 °F 78 °F 99 °F (1953)
Min Temperature 61 °F 58 °F 42 °F (1909)
Degree Days  
Heating Degree Days 0 1  
Month to date heating degree days 0 2  
Since 1 July heating degree days 13 22  
Cooling Degree Days 7 4  
Month to date cooling degree days 19 8  
Year to date cooling degree days 743 590  
Growing Degree Days 23 (Base 50)    
Moisture  
Dew Point 66 °F    
Average Humidity 78    
Maximum Humidity 93    
Minimum Humidity 62    
Precipitation  
Precipitation 0.61 in 0.12 in 0.72 in (1952)
Month to date precipitation 0.61 0.24  
Year to date precipitation 27.68 27.44  
Snow  
Snow 0.00 in 0.00 in - ()
Month to date snowfall 0.0 0.0  
Since 1 July snowfall 0.0 0.0  
Since 1 September snowfall 0.0 0.0  
Snow Depth 0.00 in    
Sea Level Pressure  
Sea Level Pressure 29.80 in    
Wind  
Wind Speed 5 mph (West)    
Max Wind Speed 21 mph    
Max Gust Speed 24 mph    
Visibility 6 miles    
Events Rain , Thunderstorm    
T = Trace of Precipitation, MM = Missing Value Source: NWS Daily Summary

Daily Weather History Graph

Daily Weather History Graph

Search for Another Location

Airport or City:

Trip Planner

Search our weather history database for the weather conditions in past years. The results will help you decide how hot, cold, wet, or windy it might be!

Date:

Astronomy

Sep. 02, 2013 Rise Set
Actual Time 6:53 AM EDT 7:56 PM EDT
Civil Twilight 6:25 AM EDT 8:24 PM EDT
Nautical Twilight 5:52 AM EDT 8:57 PM EDT
Astronomical Twilight 5:17 AM EDT 9:32 PM EDT
Moon 4:08 AM EDT (9/2) 6:09 PM EDT (9/2)
Length of Visible Light 13h 58m
Length of Day
13h 02m
Waning Crescent, 8% of the Moon is Illuminated
Sep 2
Waning Crescent
Sep 5
New
Sep 12
First Quarter
Sep 19
Full
Sep 26
Last Quarter

Hourly Weather History & Observations

Time (EDT) Temp. Heat Index Dew Point Humidity Pressure Visibility Wind Dir Wind Speed Gust Speed Precip Events Conditions
12:51 AM 72.0 °F - 66.9 °F 84% 29.77 in 8.0 mi SW 5.8 mph - N/A   Scattered Clouds
1:51 AM 71.1 °F - 66.9 °F 87% 29.78 in 8.0 mi SW 4.6 mph - N/A   Clear
2:51 AM 70.0 °F - 66.9 °F 90% 29.77 in 7.0 mi SW 3.5 mph - N/A   Partly Cloudy
3:27 AM 71.6 °F - 68.0 °F 88% 29.80 in 6.0 mi Calm Calm - N/A   Mostly Cloudy
3:51 AM 70.0 °F - 66.9 °F 90% 29.77 in 6.0 mi SW 3.5 mph - N/A   Mostly Cloudy
3:58 AM 69.8 °F - 66.2 °F 88% 29.80 in 6.0 mi SSW 4.6 mph - N/A   Partly Cloudy
4:51 AM 69.1 °F - 66.0 °F 90% 29.76 in 5.0 mi SSW 4.6 mph - N/A   Partly Cloudy
5:51 AM 70.0 °F - 66.9 °F 90% 29.77 in 4.0 mi SW 4.6 mph - N/A   Partly Cloudy
6:51 AM 69.1 °F - 66.9 °F 93% 29.78 in 4.0 mi SW 4.6 mph - N/A   Scattered Clouds
7:51 AM 71.1 °F - 68.0 °F 90% 29.80 in 4.0 mi SW 4.6 mph - N/A   Mostly Cloudy
8:51 AM 72.0 °F - 69.1 °F 91% 29.80 in 3.0 mi West 5.8 mph - N/A   Mostly Cloudy
8:58 AM 71.6 °F - 69.8 °F 94% 29.82 in 3.0 mi West 5.8 mph - N/A   Mostly Cloudy
9:51 AM 73.9 °F - 69.1 °F 85% 29.80 in 4.0 mi WSW 4.6 mph - N/A   Haze
10:51 AM 77.0 °F - 69.1 °F 76% 29.80 in 5.0 mi West 9.2 mph - N/A   Haze
11:27 AM 78.8 °F - 69.8 °F 74% 29.83 in 6.0 mi West 6.9 mph - N/A   Haze
11:51 AM 80.1 °F 82.9 °F 69.1 °F 69% 29.80 in 5.0 mi West 6.9 mph - N/A   Haze
12:51 PM 81.0 °F 83.3 °F 66.9 °F 62% 29.80 in 6.0 mi West 12.7 mph - N/A   Haze
1:51 PM 81.0 °F 83.0 °F 66.0 °F 60% 29.79 in 6.0 mi West 8.1 mph - N/A   Haze
2:23 PM 71.6 °F - 66.2 °F 83% 29.82 in 2.5 mi NNW 12.7 mph 21.9 mph 0.01 in Rain , Thunderstorm Thunderstorms and Rain
2:33 PM 69.8 °F - 66.2 °F 88% 29.82 in 2.0 mi NNW 19.6 mph 24.2 mph 0.11 in Rain , Thunderstorm Heavy Thunderstorms and Rain
2:38 PM 69.8 °F - 66.2 °F 88% 29.84 in 1.0 mi NW 17.3 mph 24.2 mph 0.21 in Rain , Thunderstorm Heavy Thunderstorms and Rain
2:51 PM 71.1 °F - 66.9 °F 87% 29.80 in 2.0 mi ESE 5.8 mph - 0.61 in Rain , Thunderstorm Light Thunderstorms and Rain
2:58 PM 71.6 °F - 66.2 °F 83% 29.82 in 6.0 mi Variable 6.9 mph - 0.00 in Rain , Thunderstorm Light Thunderstorms and Rain
3:51 PM 75.0 °F - 70.0 °F 84% 29.78 in 6.0 mi Calm Calm - 0.00 in   Mostly Cloudy
4:07 PM 75.2 °F - 69.8 °F 83% 29.80 in 4.0 mi North 11.5 mph - N/A   Overcast
4:51 PM 73.0 °F - 66.9 °F 81% 29.79 in 4.0 mi NNW 8.1 mph - N/A   Overcast
5:51 PM 73.9 °F - 66.0 °F 76% 29.81 in 5.0 mi NNW 6.9 mph - 0.00 in   Mostly Cloudy
6:51 PM 72.0 °F - 66.0 °F 81% 29.81 in 7.0 mi North 3.5 mph - N/A   Mostly Cloudy
7:51 PM 70.0 °F - 61.0 °F 73% 29.82 in 10.0 mi NW 5.8 mph - N/A   Scattered Clouds
8:51 PM 66.0 °F - 59.0 °F 78% 29.83 in 10.0 mi NNW 4.6 mph - N/A   Partly Cloudy
9:51 PM 64.0 °F - 57.9 °F 80% 29.83 in 10.0 mi NW 4.6 mph - N/A   Clear
10:51 PM 64.0 °F - 60.1 °F 87% 29.84 in 10.0 mi Calm Calm - N/A   Partly Cloudy
11:51 PM 63.0 °F - 59.0 °F 87% 29.86 in 10.0 mi West 3.5 mph - N/A   Partly Cloudy